Time,TemperatureF,DewpointF,PressureIn,WindDirection,WindDirectionDegrees,WindSpeedMPH,WindSpeedGustMPH,Humidity,HourlyPrecipIn,Conditions,Clouds,dailyrainin,SoftwareType,DateUTC
2013-06-19 00:01:00,53.4,39.0,29.12,NE,34,0.0,0.0,58,0.00,,,0.00,VWS V14.00,2013-06-19 04:01:00,
2013-06-19 00:06:00,53.4,39.0,29.12,North,353,0.0,3.1,58,0.00,,,0.00,VWS V14.00,2013-06-19 04:06:00,
2013-06-19 00:13:00,53.1,39.1,29.12,North,353,0.0,3.1,59,0.00,,,0.00,VWS V14.00,2013-06-19 04:13:00,
2013-06-19 00:18:00,52.5,39.5,29.12,North,353,0.0,3.1,61,0.00,,,0.00,VWS V14.00,2013-06-19 04:18:00,
2013-06-19 00:23:00,52.2,39.1,29.12,North,353,0.0,3.1,61,0.00,,,0.00,VWS V14.00,2013-06-19 04:23:00,
2013-06-19 00:28:00,51.8,38.8,29.12,North,353,0.0,3.1,61,0.00,,,0.00,VWS V14.00,2013-06-19 04:28:00,
2013-06-19 00:33:00,51.4,39.7,29.12,North,353,0.0,0.0,64,0.00,,,0.00,VWS V14.00,2013-06-19 04:33:00,
2013-06-19 00:38:00,51.3,40.3,29.12,North,353,0.0,0.0,66,0.00,,,0.00,VWS V14.00,2013-06-19 04:38:00,
2013-06-19 00:43:00,50.9,40.0,29.12,North,353,0.0,0.0,66,0.00,,,0.00,VWS V14.00,2013-06-19 04:43:00,
2013-06-19 00:48:00,50.5,40.0,29.12,North,353,0.0,0.0,67,0.00,,,0.00,VWS V14.00,2013-06-19 04:48:00,
2013-06-19 00:53:00,50.5,41.5,29.12,North,353,0.0,0.0,71,0.00,,,0.00,VWS V14.00,2013-06-19 04:53:00,
2013-06-19 00:58:00,50.4,42.0,29.12,North,353,0.0,0.0,73,0.00,,,0.00,VWS V14.00,2013-06-19 04:58:00,
2013-06-19 01:03:00,50.2,41.9,29.12,North,353,0.0,0.0,73,0.00,,,0.00,VWS V14.00,2013-06-19 05:03:00,
2013-06-19 01:08:00,50.0,41.7,29.12,North,353,0.0,0.0,73,0.00,,,0.00,VWS V14.00,2013-06-19 05:08:00,
2013-06-19 01:13:00,49.8,41.9,29.12,North,353,0.0,0.0,74,0.00,,,0.00,VWS V14.00,2013-06-19 05:13:00,
2013-06-19 01:18:00,49.6,41.3,29.12,North,353,0.0,0.0,73,0.00,,,0.00,VWS V14.00,2013-06-19 05:18:00,
2013-06-19 01:23:00,49.5,41.2,29.15,North,353,0.0,0.0,73,0.00,,,0.00,VWS V14.00,2013-06-19 05:23:00,
2013-06-19 01:28:00,49.5,41.9,29.15,North,353,0.0,0.0,75,0.00,,,0.00,VWS V14.00,2013-06-19 05:28:00,
2013-06-19 01:33:00,49.3,41.7,29.15,North,353,0.0,0.0,75,0.00,,,0.00,VWS V14.00,2013-06-19 05:33:00,
2013-06-19 01:38:00,48.9,41.7,29.15,North,353,0.0,0.0,76,0.00,,,0.00,VWS V14.00,2013-06-19 05:38:00,
2013-06-19 01:43:00,48.7,41.5,29.15,North,353,0.0,0.0,76,0.00,,,0.00,VWS V14.00,2013-06-19 05:43:00,
2013-06-19 01:48:00,48.6,41.7,29.15,North,353,0.0,0.0,77,0.00,,,0.00,VWS V14.00,2013-06-19 05:48:00,
2013-06-19 01:53:00,48.6,41.7,29.15,North,353,0.0,0.0,77,0.00,,,0.00,VWS V14.00,2013-06-19 05:53:00,
2013-06-19 01:58:00,48.4,41.5,29.15,North,353,0.0,0.0,77,0.00,,,0.00,VWS V14.00,2013-06-19 05:58:00,
2013-06-19 02:03:00,48.2,41.7,29.15,North,353,0.0,0.0,78,0.00,,,0.00,VWS V14.00,2013-06-19 06:03:00,
2013-06-19 02:08:00,48.0,41.8,29.15,North,353,0.0,0.0,79,0.00,,,0.00,VWS V14.00,2013-06-19 06:08:00,
2013-06-19 02:13:00,47.8,41.7,29.15,North,353,0.0,0.0,79,0.00,,,0.00,VWS V14.00,2013-06-19 06:13:00,
2013-06-19 02:18:00,47.7,41.8,29.15,North,353,0.0,0.0,80,0.00,,,0.00,VWS V14.00,2013-06-19 06:18:00,
2013-06-19 02:23:00,47.5,41.6,29.15,North,353,0.0,0.0,80,0.00,,,0.00,VWS V14.00,2013-06-19 06:23:00,
2013-06-19 02:28:00,47.3,41.5,29.15,North,353,0.0,0.0,80,0.00,,,0.00,VWS V14.00,2013-06-19 06:28:00,
2013-06-19 02:33:00,47.3,41.5,29.15,North,353,0.0,0.0,80,0.00,,,0.00,VWS V14.00,2013-06-19 06:33:00,
2013-06-19 02:38:00,47.1,41.6,29.15,North,353,0.0,0.0,81,0.00,,,0.00,VWS V14.00,2013-06-19 06:38:00,
2013-06-19 02:43:00,47.1,41.9,29.15,North,353,0.0,0.0,82,0.00,,,0.00,VWS V14.00,2013-06-19 06:43:00,
2013-06-19 02:48:00,46.9,41.4,29.15,North,353,0.0,0.0,81,0.00,,,0.00,VWS V14.00,2013-06-19 06:48:00,
2013-06-19 02:53:00,46.8,41.2,29.15,North,353,0.0,0.0,81,0.00,,,0.00,VWS V14.00,2013-06-19 06:53:00,
2013-06-19 02:58:00,46.8,41.2,29.15,North,353,0.0,0.0,81,0.00,,,0.00,VWS V14.00,2013-06-19 06:58:00,
2013-06-19 03:03:00,46.8,41.6,29.15,North,353,0.0,0.0,82,0.00,,,0.00,VWS V14.00,2013-06-19 07:03:00,
2013-06-19 03:08:00,46.6,41.1,29.15,North,353,0.0,0.0,81,0.00,,,0.00,VWS V14.00,2013-06-19 07:08:00,
2013-06-19 03:13:00,46.4,40.9,29.15,North,353,0.0,0.0,81,0.00,,,0.00,VWS V14.00,2013-06-19 07:13:00,
2013-06-19 03:18:00,46.2,41.0,29.15,North,353,0.0,0.0,82,0.00,,,0.00,VWS V14.00,2013-06-19 07:18:00,
2013-06-19 03:23:00,46.2,41.0,29.15,North,353,0.0,0.0,82,0.00,,,0.00,VWS V14.00,2013-06-19 07:23:00,
2013-06-19 03:28:00,46.0,40.9,29.15,North,353,0.0,0.0,82,0.00,,,0.00,VWS V14.00,2013-06-19 07:28:00,
2013-06-19 03:33:00,46.0,41.2,29.15,North,353,0.0,0.0,83,0.00,,,0.00,VWS V14.00,2013-06-19 07:33:00,
2013-06-19 03:38:00,46.0,41.5,29.15,North,353,0.0,0.0,84,0.00,,,0.00,VWS V14.00,2013-06-19 07:38:00,
2013-06-19 03:43:00,46.0,41.5,29.15,North,353,0.0,0.0,84,0.00,,,0.00,VWS V14.00,2013-06-19 07:43:00,
2013-06-19 03:48:00,46.0,41.8,29.15,North,353,0.0,0.0,85,0.00,,,0.00,VWS V14.00,2013-06-19 07:48:00,
2013-06-19 03:53:00,46.0,41.8,29.15,North,353,0.0,0.0,85,0.00,,,0.00,VWS V14.00,2013-06-19 07:53:00,
2013-06-19 03:58:00,45.9,41.6,29.15,North,353,0.0,0.0,85,0.00,,,0.00,VWS V14.00,2013-06-19 07:58:00,
2013-06-19 04:03:00,46.0,42.1,29.15,North,353,0.0,0.0,86,0.00,,,0.00,VWS V14.00,2013-06-19 08:03:00,
2013-06-19 04:09:00,46.0,42.4,29.15,North,353,0.0,0.0,87,0.00,,,0.00,VWS V14.00,2013-06-19 08:09:00,
2013-06-19 04:14:00,46.0,42.4,29.15,North,353,0.0,0.0,87,0.00,,,0.00,VWS V14.00,2013-06-19 08:14:00,
2013-06-19 04:19:00,46.2,42.9,29.15,North,353,0.0,0.0,88,0.00,,,0.00,VWS V14.00,2013-06-19 08:19:00,
2013-06-19 04:24:00,46.2,42.9,29.15,North,353,0.0,0.0,88,0.00,,,0.00,VWS V14.00,2013-06-19 08:24:00,
2013-06-19 04:29:00,46.2,42.9,29.15,North,353,0.0,0.0,88,0.00,,,0.00,VWS V14.00,2013-06-19 08:29:00,
2013-06-19 04:34:00,46.2,42.9,29.15,North,353,0.0,0.0,88,0.00,,,0.00,VWS V14.00,2013-06-19 08:34:00,
2013-06-19 04:39:00,46.2,42.6,29.15,North,353,0.0,0.0,87,0.00,,,0.00,VWS V14.00,2013-06-19 08:39:00,
2013-06-19 04:44:00,46.0,42.7,29.15,North,353,0.0,0.0,88,0.00,,,0.00,VWS V14.00,2013-06-19 08:44:00,
2013-06-19 04:49:00,46.2,43.5,29.15,North,353,0.0,0.0,90,0.00,,,0.00,VWS V14.00,2013-06-19 08:49:00,
2013-06-19 04:54:00,46.4,43.3,29.15,North,353,0.0,0.0,89,0.00,,,0.00,VWS V14.00,2013-06-19 08:54:00,
2013-06-19 04:59:00,46.4,43.3,29.15,North,353,0.0,0.0,89,0.00,,,0.00,VWS V14.00,2013-06-19 08:59:00,
2013-06-19 05:04:00,46.6,43.5,29.15,North,353,0.0,0.0,89,0.00,,,0.00,VWS V14.00,2013-06-19 09:04:00,
2013-06-19 05:09:00,46.4,43.0,29.15,North,353,0.0,0.0,88,0.00,,,0.00,VWS V14.00,2013-06-19 09:09:00,
2013-06-19 05:14:00,46.2,42.9,29.15,North,353,0.0,0.0,88,0.00,,,0.00,VWS V14.00,2013-06-19 09:14:00,
2013-06-19 05:19:00,46.2,43.2,29.15,North,353,0.0,0.0,89,0.00,,,0.00,VWS V14.00,2013-06-19 09:19:00,
2013-06-19 05:24:00,46.2,43.5,29.15,North,353,0.0,0.0,90,0.00,,,0.00,VWS V14.00,2013-06-19 09:24:00,
2013-06-19 05:29:00,46.0,43.3,29.15,North,353,0.0,0.0,90,0.00,,,0.00,VWS V14.00,2013-06-19 09:29:00,
2013-06-19 05:34:00,46.0,43.3,29.15,North,353,0.0,0.0,90,0.00,,,0.00,VWS V14.00,2013-06-19 09:34:00,
2013-06-19 05:39:00,46.0,43.3,29.18,North,353,0.0,0.0,90,0.00,,,0.00,VWS V14.00,2013-06-19 09:39:00,
2013-06-19 05:44:00,45.9,43.1,29.18,North,353,0.0,0.0,90,0.00,,,0.00,VWS V14.00,2013-06-19 09:44:00,
2013-06-19 05:49:00,45.9,43.4,29.18,North,353,0.0,0.0,91,0.00,,,0.00,VWS V14.00,2013-06-19 09:49:00,
2013-06-19 05:54:00,45.9,43.4,29.18,North,353,0.0,0.0,91,0.00,,,0.00,VWS V14.00,2013-06-19 09:54:00,
2013-06-19 05:59:00,45.9,43.7,29.18,North,353,0.0,0.0,92,0.00,,,0.00,VWS V14.00,2013-06-19 09:59:00,
2013-06-19 06:04:00,46.0,43.8,29.18,North,353,0.0,0.0,92,0.00,,,0.00,VWS V14.00,2013-06-19 10:04:00,
2013-06-19 06:09:00,46.0,43.8,29.18,North,353,0.0,0.0,92,0.00,,,0.00,VWS V14.00,2013-06-19 10:09:00,
2013-06-19 06:14:00,46.2,44.0,29.18,North,353,0.0,0.0,92,0.00,,,0.00,VWS V14.00,2013-06-19 10:14:00,
2013-06-19 06:19:00,46.6,44.1,29.18,North,353,0.0,0.0,91,0.00,,,0.00,VWS V14.00,2013-06-19 10:19:00,
2013-06-19 06:24:00,46.8,43.7,29.18,North,353,0.0,0.0,89,0.00,,,0.00,VWS V14.00,2013-06-19 10:24:00,
2013-06-19 06:29:00,46.9,43.6,29.18,NE,42,0.0,0.0,88,0.00,,,0.00,VWS V14.00,2013-06-19 10:29:00,
2013-06-19 06:34:00,47.3,43.6,29.18,NNE,32,0.0,3.1,87,0.00,,,0.00,VWS V14.00,2013-06-19 10:34:00,
2013-06-19 06:39:00,47.3,43.6,29.18,NNE,32,0.0,3.1,87,0.00,,,0.00,VWS V14.00,2013-06-19 10:39:00,
2013-06-19 06:44:00,47.3,43.6,29.18,NNE,32,0.0,3.1,87,0.00,,,0.00,VWS V14.00,2013-06-19 10:44:00,
2013-06-19 06:49:00,47.3,43.6,29.18,NNE,32,0.0,3.1,87,0.00,,,0.00,VWS V14.00,2013-06-19 10:49:00,
2013-06-19 06:54:00,47.7,43.7,29.18,NNE,32,0.0,3.1,86,0.00,,,0.00,VWS V14.00,2013-06-19 10:54:00,
2013-06-19 06:59:00,48.0,44.0,29.18,NNE,32,0.0,3.1,86,0.00,,,0.00,VWS V14.00,2013-06-19 10:59:00,
2013-06-19 07:04:00,48.6,44.6,29.18,NNE,32,0.0,2.2,86,0.00,,,0.00,VWS V14.00,2013-06-19 11:04:00,
2013-06-19 07:09:00,48.9,44.6,29.21,NNE,32,0.0,2.2,85,0.00,,,0.00,VWS V14.00,2013-06-19 11:09:00,
2013-06-19 07:14:00,49.1,45.1,29.21,NNE,32,0.0,2.2,86,0.00,,,0.00,VWS V14.00,2013-06-19 11:14:00,
2013-06-19 07:19:00,50.0,45.0,29.21,NNE,26,0.0,5.4,83,0.00,,,0.00,VWS V14.00,2013-06-19 11:19:00,
2013-06-19 07:24:00,50.4,44.8,29.21,NE,36,0.0,5.4,81,0.00,,,0.00,VWS V14.00,2013-06-19 11:24:00,
2013-06-19 07:29:00,50.5,44.6,29.21,NE,36,0.0,5.4,80,0.00,,,0.00,VWS V14.00,2013-06-19 11:29:00,
2013-06-19 07:34:00,51.1,44.8,29.21,NE,36,0.0,4.0,79,0.00,,,0.00,VWS V14.00,2013-06-19 11:34:00,
2013-06-19 07:39:00,51.4,44.8,29.21,NNE,32,0.0,4.9,78,0.00,,,0.00,VWS V14.00,2013-06-19 11:39:00,
2013-06-19 07:44:00,51.8,44.8,29.21,NNE,33,0.0,4.9,77,0.00,,,0.00,VWS V14.00,2013-06-19 11:44:00,
2013-06-19 07:49:00,52.2,44.8,29.21,NNE,29,0.0,4.9,76,0.00,,,0.00,VWS V14.00,2013-06-19 11:49:00,
2013-06-19 07:54:00,52.7,45.0,29.21,NNE,27,0.0,4.9,75,0.00,,,0.00,VWS V14.00,2013-06-19 11:54:00,
2013-06-19 07:59:00,53.1,45.0,29.21,NE,55,0.0,4.9,74,0.00,,,0.00,VWS V14.00,2013-06-19 11:59:00,
2013-06-19 08:04:00,53.8,45.0,29.21,NNE,29,0.0,2.2,72,0.00,,,0.00,VWS V14.00,2013-06-19 12:04:00,
2013-06-19 08:09:00,54.1,44.6,29.21,NNE,12,0.0,2.7,70,0.00,,,0.00,VWS V14.00,2013-06-19 12:09:00,
2013-06-19 08:14:00,54.5,45.3,29.21,NNE,22,0.0,2.7,71,0.00,,,0.00,VWS V14.00,2013-06-19 12:14:00,
2013-06-19 08:19:00,54.9,45.3,29.21,NNE,17,2.7,3.1,70,0.00,,,0.00,VWS V14.00,2013-06-19 12:19:00,
2013-06-19 08:24:00,55.4,45.8,29.21,NNE,22,0.0,4.9,70,0.00,,,0.00,VWS V14.00,2013-06-19 12:24:00,
2013-06-19 08:29:00,55.9,45.9,29.21,NE,55,0.0,4.9,69,0.00,,,0.00,VWS V14.00,2013-06-19 12:29:00,
2013-06-19 08:34:00,56.5,46.8,29.21,NE,35,0.0,2.7,70,0.00,,,0.00,VWS V14.00,2013-06-19 12:34:00,
2013-06-19 08:39:00,56.8,46.4,29.21,North,357,3.1,3.1,68,0.00,,,0.00,VWS V14.00,2013-06-19 12:39:00,
2013-06-19 08:44:00,57.4,44.9,29.21,NNE,18,0.0,5.4,63,0.00,,,0.00,VWS V14.00,2013-06-19 12:44:00,
2013-06-19 08:49:00,57.9,46.2,29.21,East,97,0.0,6.3,65,0.00,,,0.00,VWS V14.00,2013-06-19 12:49:00,
2013-06-19 08:54:00,58.3,46.6,29.21,SSE,164,0.0,6.3,65,0.00,,,0.00,VWS V14.00,2013-06-19 12:54:00,
2013-06-19 08:59:00,58.8,45.8,29.21,NE,45,4.0,6.3,62,0.00,,,0.00,VWS V14.00,2013-06-19 12:59:00,
2013-06-19 09:04:00,59.2,46.2,29.21,NW,312,0.0,0.0,62,0.00,,,0.00,VWS V14.00,2013-06-19 13:04:00,
2013-06-19 09:09:00,59.7,46.3,29.21,NNE,29,0.0,3.1,61,0.00,,,0.00,VWS V14.00,2013-06-19 13:09:00,
2013-06-19 09:14:00,60.1,46.6,29.21,SE,125,0.0,3.1,61,0.00,,,0.00,VWS V14.00,2013-06-19 13:14:00,
2013-06-19 09:19:00,60.3,45.0,29.21,ENE,69,0.0,3.1,57,0.00,,,0.00,VWS V14.00,2013-06-19 13:19:00,
2013-06-19 09:24:00,60.8,46.0,29.23,East,100,0.0,3.1,58,0.00,,,0.00,VWS V14.00,2013-06-19 13:24:00,
2013-06-19 09:29:00,61.0,46.1,29.23,NNE,12,0.0,3.1,58,0.00,,,0.00,VWS V14.00,2013-06-19 13:29:00,
2013-06-19 09:34:00,61.5,46.2,29.23,SE,137,0.0,0.0,57,0.00,,,0.00,VWS V14.00,2013-06-19 13:34:00,
2013-06-19 09:39:00,61.9,46.0,29.21,SE,131,0.0,0.0,56,0.00,,,0.00,VWS V14.00,2013-06-19 13:39:00,
2013-06-19 09:44:00,62.2,45.9,29.21,SE,135,0.0,3.1,55,0.00,,,0.00,VWS V14.00,2013-06-19 13:44:00,
2013-06-19 09:49:00,62.6,45.2,29.21,East,79,0.0,5.4,53,0.00,,,0.00,VWS V14.00,2013-06-19 13:49:00,
2013-06-19 09:54:00,63.0,46.6,29.21,NNE,23,3.1,5.4,55,0.00,,,0.00,VWS V14.00,2013-06-19 13:54:00,
2013-06-19 09:59:00,63.7,46.7,29.21,NNE,21,0.0,5.4,54,0.00,,,0.00,VWS V14.00,2013-06-19 13:59:00,
2013-06-19 10:04:00,64.0,45.6,29.21,North,9,2.7,4.0,51,0.00,,,0.00,VWS V14.00,2013-06-19 14:04:00,
2013-06-19 10:09:00,65.1,46.6,29.21,NE,46,0.0,4.0,51,0.00,,,0.00,VWS V14.00,2013-06-19 14:09:00,
2013-06-19 10:14:00,66.0,47.4,29.21,ESE,112,0.0,4.0,51,0.00,,,0.00,VWS V14.00,2013-06-19 14:14:00,
2013-06-19 10:19:00,66.0,46.9,29.21,NNE,15,0.0,4.0,50,0.00,,,0.00,VWS V14.00,2013-06-19 14:19:00,
2013-06-19 10:24:00,66.6,45.7,29.21,NNE,29,0.0,5.4,47,0.00,,,0.00,VWS V14.00,2013-06-19 14:24:00,
2013-06-19 10:29:00,67.8,48.5,29.21,SE,126,0.0,5.4,50,0.00,,,0.00,VWS V14.00,2013-06-19 14:29:00,
2013-06-19 10:34:00,68.5,47.5,29.21,SE,126,0.0,0.0,47,0.00,,,0.00,VWS V14.00,2013-06-19 14:34:00,
2013-06-19 10:39:00,69.1,46.9,29.21,NNE,14,0.0,2.7,45,0.00,,,0.00,VWS V14.00,2013-06-19 14:39:00,
2013-06-19 10:44:00,69.4,46.6,29.21,NNE,29,0.0,3.1,44,0.00,,,0.00,VWS V14.00,2013-06-19 14:44:00,
2013-06-19 10:49:00,70.0,47.7,29.21,SE,139,0.0,4.0,45,0.00,,,0.00,VWS V14.00,2013-06-19 14:49:00,
2013-06-19 10:54:00,69.1,45.7,29.21,NNE,21,0.0,5.4,43,0.00,,,0.00,VWS V14.00,2013-06-19 14:54:00,
2013-06-19 10:59:00,70.3,48.0,29.21,NNE,15,0.0,5.4,45,0.00,,,0.00,VWS V14.00,2013-06-19 14:59:00,
2013-06-19 11:04:00,71.8,48.1,29.21,South,175,0.0,2.7,43,0.00,,,0.00,VWS V14.00,2013-06-19 15:04:00,
2013-06-19 11:09:00,72.5,49.4,29.21,ESE,123,0.0,2.7,44,0.00,,,0.00,VWS V14.00,2013-06-19 15:09:00,
2013-06-19 11:14:00,73.0,48.6,29.21,ESE,123,0.0,2.7,42,0.00,,,0.00,VWS V14.00,2013-06-19 15:14:00,
2013-06-19 11:19:00,73.4,48.9,29.21,SSE,147,0.0,3.6,42,0.00,,,0.00,VWS V14.00,2013-06-19 15:19:00,
2013-06-19 11:24:00,74.5,49.9,29.21,SSE,147,0.0,3.6,42,0.00,,,0.00,VWS V14.00,2013-06-19 15:24:00,
2013-06-19 11:29:00,74.8,48.9,29.21,SSE,147,0.0,3.6,40,0.00,,,0.00,VWS V14.00,2013-06-19 15:29:00,
2013-06-19 11:34:00,74.1,48.9,29.21,SSW,199,0.0,0.0,41,0.00,,,0.00,VWS V14.00,2013-06-19 15:34:00,
2013-06-19 11:39:00,74.3,48.4,29.21,SSW,199,0.0,0.0,40,0.00,,,0.00,VWS V14.00,2013-06-19 15:39:00,
2013-06-19 11:44:00,73.9,47.5,29.21,SE,144,0.0,0.0,39,0.00,,,0.00,VWS V14.00,2013-06-19 15:44:00,
2013-06-19 11:49:00,75.7,49.0,29.21,SE,144,0.0,0.0,39,0.00,,,0.00,VWS V14.00,2013-06-19 15:49:00,
2013-06-19 11:54:00,76.6,49.2,29.21,SE,144,0.0,0.0,38,0.00,,,0.00,VWS V14.00,2013-06-19 15:54:00,
2013-06-19 11:59:00,75.9,47.1,29.21,ESE,112,0.0,0.0,36,0.00,,,0.00,VWS V14.00,2013-06-19 15:59:00,
2013-06-19 12:04:00,74.7,43.7,29.21,NE,48,0.0,3.6,33,0.00,,,0.00,VWS V14.00,2013-06-19 16:04:00,
2013-06-19 12:09:00,74.3,44.9,29.21,SW,231,0.0,3.6,35,0.00,,,0.00,VWS V14.00,2013-06-19 16:09:00,
2013-06-19 12:14:00,76.1,46.5,29.21,SW,231,0.0,3.6,35,0.00,,,0.00,VWS V14.00,2013-06-19 16:14:00,
2013-06-19 12:19:00,76.8,47.9,29.21,South,187,0.0,3.6,36,0.00,,,0.00,VWS V14.00,2013-06-19 16:19:00,
2013-06-19 12:24:00,77.4,48.3,29.21,SE,144,0.0,5.8,36,0.00,,,0.00,VWS V14.00,2013-06-19 16:24:00,
2013-06-19 12:29:00,77.7,47.1,29.21,SSE,150,0.0,5.8,34,0.00,,,0.00,VWS V14.00,2013-06-19 16:29:00,
2013-06-19 12:34:00,78.1,47.5,29.21,SW,229,0.0,3.1,34,0.00,,,0.00,VWS V14.00,2013-06-19 16:34:00,
2013-06-19 12:39:00,77.9,48.1,29.21,SSE,147,0.0,3.1,35,0.00,,,0.00,VWS V14.00,2013-06-19 16:39:00,
2013-06-19 12:44:00,78.1,48.2,29.21,NE,45,0.0,3.1,35,0.00,,,0.00,VWS V14.00,2013-06-19 16:44:00,
2013-06-19 12:49:00,77.9,47.3,29.21,North,2,0.0,3.1,34,0.00,,,0.00,VWS V14.00,2013-06-19 16:49:00,
2013-06-19 12:54:00,79.0,48.2,29.21,SE,144,0.0,3.1,34,0.00,,,0.00,VWS V14.00,2013-06-19 16:54:00,
2013-06-19 13:00:00,77.5,46.2,29.21,WSW,248,0.0,3.1,33,0.00,,,0.00,VWS V14.00,2013-06-19 17:00:00,
2013-06-19 13:05:00,78.3,46.8,29.21,South,191,2.2,3.6,33,0.00,,,0.00,VWS V14.00,2013-06-19 17:05:00,
2013-06-19 13:10:00,77.7,46.3,29.21,SSW,200,0.0,3.6,33,0.00,,,0.00,VWS V14.00,2013-06-19 17:10:00,
2013-06-19 13:15:00,77.5,46.2,29.21,NW,316,0.0,3.6,33,0.00,,,0.00,VWS V14.00,2013-06-19 17:15:00,
2013-06-19 13:20:00,76.6,45.4,29.21,NNE,27,0.0,5.8,33,0.00,,,0.00,VWS V14.00,2013-06-19 17:20:00,
2013-06-19 13:25:00,78.3,47.6,29.21,SSE,157,0.0,5.8,34,0.00,,,0.00,VWS V14.00,2013-06-19 17:25:00,
2013-06-19 13:30:00,78.8,47.3,29.21,SE,143,4.0,5.8,33,0.00,,,0.00,VWS V14.00,2013-06-19 17:30:00,
2013-06-19 13:35:00,78.8,47.3,29.21,ENE,74,0.0,4.0,33,0.00,,,0.00,VWS V14.00,2013-06-19 17:35:00,
2013-06-19 13:40:00,79.0,48.2,29.21,South,177,3.6,4.0,34,0.00,,,0.00,VWS V14.00,2013-06-19 17:40:00,
2013-06-19 13:45:00,79.0,47.5,29.21,East,100,0.0,4.0,33,0.00,,,0.00,VWS V14.00,2013-06-19 17:45:00,
2013-06-19 13:50:00,78.8,46.5,29.21,SW,222,2.2,5.8,32,0.00,,,0.00,VWS V14.00,2013-06-19 17:50:00,
2013-06-19 13:55:00,78.8,47.3,29.21,SSW,203,0.0,5.8,33,0.00,,,0.00,VWS V14.00,2013-06-19 17:55:00,
2013-06-19 14:00:00,79.7,48.1,29.21,SSE,163,0.0,5.8,33,0.00,,,0.00,VWS V14.00,2013-06-19 18:00:00,
2013-06-19 14:05:00,79.0,46.6,29.21,SW,214,3.6,5.8,32,0.00,,,0.00,VWS V14.00,2013-06-19 18:05:00,
2013-06-19 14:10:00,78.6,47.1,29.21,SE,132,0.0,5.8,33,0.00,,,0.00,VWS V14.00,2013-06-19 18:10:00,
2013-06-19 14:15:00,79.0,46.6,29.21,NW,317,0.0,5.8,32,0.00,,,0.00,VWS V14.00,2013-06-19 18:15:00,
2013-06-19 14:20:00,79.2,46.8,29.21,West,280,0.0,5.8,32,0.00,,,0.00,VWS V14.00,2013-06-19 18:20:00,
2013-06-19 14:25:00,77.0,44.9,29.18,NNE,25,8.1,8.1,32,0.00,,,0.00,VWS V14.00,2013-06-19 18:25:00,
2013-06-19 14:30:00,77.5,46.2,29.18,NE,37,4.0,8.1,33,0.00,,,0.00,VWS V14.00,2013-06-19 18:30:00,
2013-06-19 14:35:00,77.4,46.0,29.18,ESE,118,0.0,4.0,33,0.00,,,0.00,VWS V14.00,2013-06-19 18:35:00,
2013-06-19 14:40:00,79.0,48.2,29.18,ESE,120,0.0,4.0,34,0.00,,,0.00,VWS V14.00,2013-06-19 18:40:00,
2013-06-19 14:45:00,79.7,48.9,29.18,ESE,122,0.0,4.0,34,0.00,,,0.00,VWS V14.00,2013-06-19 18:45:00,
2013-06-19 14:50:00,79.7,48.1,29.18,SSE,166,0.0,4.0,33,0.00,,,0.00,VWS V14.00,2013-06-19 18:50:00,
2013-06-19 14:55:00,79.9,46.6,29.18,SSW,198,3.1,6.3,31,0.00,,,0.00,VWS V14.00,2013-06-19 18:55:00,
2013-06-19 15:00:00,80.1,47.6,29.18,SSE,160,0.0,6.3,32,0.00,,,0.00,VWS V14.00,2013-06-19 19:00:00,
2013-06-19 15:05:00,80.1,48.4,29.18,South,172,2.2,2.7,33,0.00,,,0.00,VWS V14.00,2013-06-19 19:05:00,
2013-06-19 15:10:00,81.1,48.5,29.18,South,182,0.0,3.6,32,0.00,,,0.00,VWS V14.00,2013-06-19 19:10:00,
2013-06-19 15:15:00,81.3,48.7,29.18,SSW,212,0.0,4.0,32,0.00,,,0.00,VWS V14.00,2013-06-19 19:15:00,
2013-06-19 15:20:00,80.8,47.4,29.18,WSW,248,0.0,4.5,31,0.00,,,0.00,VWS V14.00,2013-06-19 19:20:00,
2013-06-19 15:25:00,81.5,48.0,29.18,WSW,249,0.0,4.5,31,0.00,,,0.00,VWS V14.00,2013-06-19 19:25:00,
2013-06-19 15:30:00,79.5,47.1,29.18,South,177,0.0,0.0,32,0.00,,,0.00,VWS V14.00,2013-06-19 19:30:00,
2013-06-19 15:35:00,79.3,47.8,29.18,NNE,29,0.0,3.6,33,0.00,,,0.00,VWS V14.00,2013-06-19 19:35:00,
2013-06-19 15:40:00,80.4,47.9,29.18,ESE,120,0.0,4.0,32,0.00,,,0.00,VWS V14.00,2013-06-19 19:40:00,
2013-06-19 15:45:00,81.0,47.5,29.18,SSW,207,0.0,4.0,31,0.00,,,0.00,VWS V14.00,2013-06-19 19:45:00,
2013-06-19 15:50:00,81.0,47.5,29.18,SSW,195,4.0,5.4,31,0.00,,,0.00,VWS V14.00,2013-06-19 19:50:00,
2013-06-19 15:55:00,81.3,48.7,29.18,WNW,291,4.0,5.4,32,0.00,,,0.00,VWS V14.00,2013-06-19 19:55:00,
2013-06-19 16:00:00,80.6,47.2,29.18,West,277,0.0,0.0,31,0.00,,,0.00,VWS V14.00,2013-06-19 20:00:00,
2013-06-19 16:05:00,80.6,47.2,29.18,WSW,248,0.0,0.0,31,0.00,,,0.00,VWS V14.00,2013-06-19 20:05:00,
2013-06-19 16:10:00,81.7,49.0,29.18,SSE,150,0.0,3.1,32,0.00,,,0.00,VWS V14.00,2013-06-19 20:10:00,
2013-06-19 16:15:00,79.9,47.4,29.18,ESE,123,2.2,3.1,32,0.00,,,0.00,VWS V14.00,2013-06-19 20:15:00,
2013-06-19 16:20:00,80.8,46.5,29.18,West,270,4.9,4.9,30,0.00,,,0.00,VWS V14.00,2013-06-19 20:20:00,
2013-06-19 16:25:00,80.4,47.0,29.18,SW,231,0.0,5.4,31,0.00,,,0.00,VWS V14.00,2013-06-19 20:25:00,
2013-06-19 16:30:00,80.8,47.4,29.18,SSE,153,0.0,0.0,31,0.00,,,0.00,VWS V14.00,2013-06-19 20:30:00,
2013-06-19 16:35:00,79.9,46.6,29.18,SE,139,0.0,3.6,31,0.00,,,0.00,VWS V14.00,2013-06-19 20:35:00,
2013-06-19 16:40:00,79.7,46.4,29.18,SSE,149,3.6,4.0,31,0.00,,,0.00,VWS V14.00,2013-06-19 20:40:00,
2013-06-19 16:45:00,80.4,47.0,29.18,SE,136,0.0,4.0,31,0.00,,,0.00,VWS V14.00,2013-06-19 20:45:00,
2013-06-19 16:50:00,80.4,47.0,29.18,SE,131,0.0,4.0,31,0.00,,,0.00,VWS V14.00,2013-06-19 20:50:00,
2013-06-19 16:55:00,79.5,45.4,29.18,SSW,200,0.0,5.4,30,0.00,,,0.00,VWS V14.00,2013-06-19 20:55:00,
2013-06-19 17:00:00,79.3,46.1,29.18,SE,144,0.0,0.0,31,0.00,,,0.00,VWS V14.00,2013-06-19 21:00:00,
2013-06-19 17:05:00,79.5,46.3,29.18,South,186,0.0,3.1,31,0.00,,,0.00,VWS V14.00,2013-06-19 21:05:00,
2013-06-19 17:10:00,79.9,47.4,29.18,WSW,241,0.0,4.0,32,0.00,,,0.00,VWS V14.00,2013-06-19 21:10:00,
2013-06-19 17:15:00,79.7,46.4,29.18,SSW,209,0.0,4.0,31,0.00,,,0.00,VWS V14.00,2013-06-19 21:15:00,
2013-06-19 17:20:00,80.2,46.9,29.18,North,3,0.0,4.0,31,0.00,,,0.00,VWS V14.00,2013-06-19 21:20:00,
2013-06-19 17:25:00,78.1,45.0,29.18,NE,50,0.0,4.0,31,0.00,,,0.00,VWS V14.00,2013-06-19 21:25:00,
2013-06-19 17:30:00,77.9,45.7,29.18,SSE,167,0.0,0.0,32,0.00,,,0.00,VWS V14.00,2013-06-19 21:30:00,
2013-06-19 17:35:00,77.5,45.4,29.18,SSE,166,0.0,6.3,32,0.00,,,0.00,VWS V14.00,2013-06-19 21:35:00,
2013-06-19 17:40:00,78.3,46.0,29.18,SE,136,0.0,6.3,32,0.00,,,0.00,VWS V14.00,2013-06-19 21:40:00,
2013-06-19 17:45:00,78.8,46.5,29.18,SSW,196,0.0,6.3,32,0.00,,,0.00,VWS V14.00,2013-06-19 21:45:00,
2013-06-19 17:50:00,78.4,46.2,29.18,ESE,122,0.0,6.3,32,0.00,,,0.00,VWS V14.00,2013-06-19 21:50:00,
2013-06-19 17:55:00,77.4,45.2,29.15,ESE,122,0.0,6.3,32,0.00,,,0.00,VWS V14.00,2013-06-19 21:55:00,
2013-06-19 18:00:00,77.4,46.0,29.15,SSE,158,0.0,0.0,33,0.00,,,0.00,VWS V14.00,2013-06-19 22:00:00,
2013-06-19 18:05:00,78.3,46.8,29.15,SSE,154,0.0,0.0,33,0.00,,,0.00,VWS V14.00,2013-06-19 22:05:00,
2013-06-19 18:10:00,77.2,45.1,29.15,SSW,200,0.0,4.0,32,0.00,,,0.00,VWS V14.00,2013-06-19 22:10:00,
2013-06-19 18:15:00,75.9,44.8,29.15,SE,127,0.0,4.0,33,0.00,,,0.00,VWS V14.00,2013-06-19 22:15:00,
2013-06-19 18:20:00,75.9,44.8,29.15,SE,127,0.0,4.0,33,0.00,,,0.00,VWS V14.00,2013-06-19 22:20:00,
2013-06-19 18:25:00,75.2,44.9,29.15,SSE,158,0.0,4.0,34,0.00,,,0.00,VWS V14.00,2013-06-19 22:25:00,
2013-06-19 18:30:00,74.7,45.2,29.15,South,172,0.0,0.0,35,0.00,,,0.00,VWS V14.00,2013-06-19 22:30:00,
2013-06-19 18:35:00,74.1,45.5,29.15,South,172,0.0,0.0,36,0.00,,,0.00,VWS V14.00,2013-06-19 22:35:00,
2013-06-19 18:40:00,73.6,45.0,29.15,South,172,0.0,0.0,36,0.00,,,0.00,VWS V14.00,2013-06-19 22:40:00,
2013-06-19 18:45:00,73.2,44.7,29.15,SE,130,0.0,0.0,36,0.00,,,0.00,VWS V14.00,2013-06-19 22:45:00,
2013-06-19 18:50:00,73.0,45.2,29.15,SE,130,0.0,0.0,37,0.00,,,0.00,VWS V14.00,2013-06-19 22:50:00,
2013-06-19 18:55:00,73.4,46.3,29.15,SE,143,0.0,0.0,38,0.00,,,0.00,VWS V14.00,2013-06-19 22:55:00,
2013-06-19 19:00:00,72.9,45.1,29.15,SSW,206,0.0,0.0,37,0.00,,,0.00,VWS V14.00,2013-06-19 23:00:00,
2013-06-19 19:05:00,72.5,45.5,29.15,SW,234,0.0,0.0,38,0.00,,,0.00,VWS V14.00,2013-06-19 23:05:00,
2013-06-19 19:10:00,72.1,45.8,29.15,SSW,200,0.0,0.0,39,0.00,,,0.00,VWS V14.00,2013-06-19 23:10:00,
2013-06-19 19:15:00,71.8,46.2,29.15,SE,127,0.0,0.0,40,0.00,,,0.00,VWS V14.00,2013-06-19 23:15:00,
2013-06-19 19:20:00,71.6,47.3,29.15,SE,127,0.0,0.0,42,0.00,,,0.00,VWS V14.00,2013-06-19 23:20:00,
2013-06-19 19:25:00,71.4,48.4,29.15,South,190,0.0,0.0,44,0.00,,,0.00,VWS V14.00,2013-06-19 23:25:00,
2013-06-19 19:30:00,71.1,48.7,29.15,South,185,0.0,0.0,45,0.00,,,0.00,VWS V14.00,2013-06-19 23:30:00,
2013-06-19 19:35:00,70.5,48.8,29.15,South,186,0.0,0.0,46,0.00,,,0.00,VWS V14.00,2013-06-19 23:35:00,
2013-06-19 19:40:00,70.3,48.6,29.15,ESE,117,2.2,3.1,46,0.00,,,0.00,VWS V14.00,2013-06-19 23:40:00,
2013-06-19 19:45:00,70.0,48.8,29.15,SE,141,0.0,3.1,47,0.00,,,0.00,VWS V14.00,2013-06-19 23:45:00,
2013-06-19 19:50:00,69.8,49.8,29.15,SE,146,0.0,3.1,49,0.00,,,0.00,VWS V14.00,2013-06-19 23:50:00,
2013-06-19 19:55:00,69.4,50.0,29.18,SW,217,0.0,3.1,50,0.00,,,0.00,VWS V14.00,2013-06-19 23:55:00,
2013-06-19 20:00:00,69.3,49.8,29.18,SSW,196,0.0,0.0,50,0.00,,,0.00,VWS V14.00,2013-06-20 00:00:00,
2013-06-19 20:05:00,69.1,50.2,29.18,SE,146,0.0,3.6,51,0.00,,,0.00,VWS V14.00,2013-06-20 00:05:00,
2013-06-19 20:10:00,68.9,50.6,29.18,SSE,152,0.0,3.6,52,0.00,,,0.00,VWS V14.00,2013-06-20 00:10:00,
2013-06-19 20:15:00,68.7,50.9,29.18,SSW,200,3.6,4.0,53,0.00,,,0.00,VWS V14.00,2013-06-20 00:15:00,
2013-06-19 20:20:00,68.4,51.1,29.18,East,86,3.1,5.8,54,0.00,,,0.00,VWS V14.00,2013-06-20 00:20:00,
2013-06-19 20:25:00,68.0,50.8,29.18,SE,135,0.0,5.8,54,0.00,,,0.00,VWS V14.00,2013-06-20 00:25:00,
2013-06-19 20:30:00,67.6,50.9,29.18,SSW,200,0.0,0.0,55,0.00,,,0.00,VWS V14.00,2013-06-20 00:30:00,
2013-06-19 20:35:00,67.3,50.6,29.18,South,178,0.0,0.0,55,0.00,,,0.00,VWS V14.00,2013-06-20 00:35:00,
2013-06-19 20:40:00,66.9,50.7,29.18,SE,124,0.0,3.1,56,0.00,,,0.00,VWS V14.00,2013-06-20 00:40:00,
2013-06-19 20:45:00,66.7,51.0,29.18,SE,124,0.0,3.1,57,0.00,,,0.00,VWS V14.00,2013-06-20 00:45:00,
2013-06-19 20:50:00,66.2,51.0,29.18,SE,124,0.0,3.1,58,0.00,,,0.00,VWS V14.00,2013-06-20 00:50:00,
2013-06-19 20:55:00,66.0,51.3,29.18,ESE,122,0.0,3.1,59,0.00,,,0.00,VWS V14.00,2013-06-20 00:55:00,
2013-06-19 21:00:00,65.7,51.0,29.18,ESE,123,0.0,0.0,59,0.00,,,0.00,VWS V14.00,2013-06-20 01:00:00,
2013-06-19 21:06:00,65.5,51.2,29.18,South,178,0.0,0.0,60,0.00,,,0.00,VWS V14.00,2013-06-20 01:06:00,
2013-06-19 21:11:00,65.1,50.9,29.18,South,178,0.0,0.0,60,0.00,,,0.00,VWS V14.00,2013-06-20 01:11:00,
2013-06-19 21:16:00,64.8,50.6,29.18,South,178,0.0,0.0,60,0.00,,,0.00,VWS V14.00,2013-06-20 01:16:00,
2013-06-19 21:21:00,64.2,50.9,29.18,South,178,0.0,0.0,62,0.00,,,0.00,VWS V14.00,2013-06-20 01:21:00,
2013-06-19 21:26:00,63.9,50.6,29.18,South,178,0.0,0.0,62,0.00,,,0.00,VWS V14.00,2013-06-20 01:26:00,
2013-06-19 21:31:00,63.5,50.3,29.18,South,178,0.0,0.0,62,0.00,,,0.00,VWS V14.00,2013-06-20 01:31:00,
2013-06-19 21:36:00,63.3,50.5,29.18,South,178,0.0,0.0,63,0.00,,,0.00,VWS V14.00,2013-06-20 01:36:00,
2013-06-19 21:41:00,63.1,50.8,29.18,South,178,0.0,0.0,64,0.00,,,0.00,VWS V14.00,2013-06-20 01:41:00,
2013-06-19 21:46:00,63.0,50.6,29.18,South,178,0.0,0.0,64,0.00,,,0.00,VWS V14.00,2013-06-20 01:46:00,
2013-06-19 21:51:00,62.8,50.8,29.18,South,178,0.0,0.0,65,0.00,,,0.00,VWS V14.00,2013-06-20 01:51:00,
2013-06-19 21:56:00,62.4,50.5,29.18,South,178,0.0,0.0,65,0.00,,,0.00,VWS V14.00,2013-06-20 01:56:00,
2013-06-19 22:01:00,62.2,50.8,29.18,South,178,0.0,0.0,66,0.00,,,0.00,VWS V14.00,2013-06-20 02:01:00,
2013-06-19 22:06:00,61.9,50.8,29.18,South,178,2.7,3.6,67,0.00,,,0.00,VWS V14.00,2013-06-20 02:06:00,
2013-06-19 22:11:00,61.9,50.8,29.21,South,179,0.0,3.6,67,0.00,,,0.00,VWS V14.00,2013-06-20 02:11:00,
2013-06-19 22:16:00,61.5,50.9,29.21,South,179,0.0,3.6,68,0.00,,,0.00,VWS V14.00,2013-06-20 02:16:00,
2013-06-19 22:21:00,61.3,50.7,29.21,South,179,0.0,3.6,68,0.00,,,0.00,VWS V14.00,2013-06-20 02:21:00,
2013-06-19 22:26:00,61.0,50.4,29.21,South,179,0.0,3.6,68,0.00,,,0.00,VWS V14.00,2013-06-20 02:26:00,
2013-06-19 22:31:00,60.8,50.6,29.21,South,179,0.0,0.0,69,0.00,,,0.00,VWS V14.00,2013-06-20 02:31:00,
2013-06-19 22:36:00,60.8,50.6,29.21,South,179,0.0,0.0,69,0.00,,,0.00,VWS V14.00,2013-06-20 02:36:00,
2013-06-19 22:41:00,60.4,50.2,29.21,South,179,0.0,0.0,69,0.00,,,0.00,VWS V14.00,2013-06-20 02:41:00,
2013-06-19 22:46:00,60.3,50.5,29.21,South,179,0.0,0.0,70,0.00,,,0.00,VWS V14.00,2013-06-20 02:46:00,
2013-06-19 22:51:00,60.1,50.3,29.21,South,179,0.0,0.0,70,0.00,,,0.00,VWS V14.00,2013-06-20 02:51:00,
2013-06-19 22:56:00,60.1,50.3,29.21,South,179,0.0,0.0,70,0.00,,,0.00,VWS V14.00,2013-06-20 02:56:00,
2013-06-19 23:01:00,59.7,50.3,29.21,South,179,0.0,0.0,71,0.00,,,0.00,VWS V14.00,2013-06-20 03:01:00,
2013-06-19 23:06:00,59.5,50.1,29.21,South,179,0.0,0.0,71,0.00,,,0.00,VWS V14.00,2013-06-20 03:06:00,
2013-06-19 23:11:00,59.2,49.8,29.21,South,179,0.0,0.0,71,0.00,,,0.00,VWS V14.00,2013-06-20 03:11:00,
2013-06-19 23:16:00,59.0,49.6,29.21,South,179,0.0,0.0,71,0.00,,,0.00,VWS V14.00,2013-06-20 03:16:00,
2013-06-19 23:21:00,58.8,49.8,29.21,South,179,0.0,0.0,72,0.00,,,0.00,VWS V14.00,2013-06-20 03:21:00,
2013-06-19 23:26:00,58.6,50.0,29.21,South,179,0.0,0.0,73,0.00,,,0.00,VWS V14.00,2013-06-20 03:26:00,
2013-06-19 23:31:00,58.5,50.2,29.21,South,179,0.0,0.0,74,0.00,,,0.00,VWS V14.00,2013-06-20 03:31:00,
2013-06-19 23:36:00,58.3,50.0,29.21,South,179,0.0,0.0,74,0.00,,,0.00,VWS V14.00,2013-06-20 03:36:00,
2013-06-19 23:41:00,58.1,49.9,29.21,South,179,0.0,0.0,74,0.00,,,0.00,VWS V14.00,2013-06-20 03:41:00,
2013-06-19 23:46:00,57.9,50.0,29.21,South,179,0.0,0.0,75,0.00,,,0.00,VWS V14.00,2013-06-20 03:46:00,
2013-06-19 23:51:00,57.6,50.1,29.21,South,179,0.0,0.0,76,0.00,,,0.00,VWS V14.00,2013-06-20 03:51:00,
2013-06-19 23:56:00,57.6,50.8,29.21,South,179,0.0,0.0,78,0.00,,,0.00,VWS V14.00,2013-06-20 03:56:00,